owner,sensor,date,latitude,longitude,vertical_datum,sea_water_temperature,qcFlag
Anadarko,ioos:station:wmo:42379:1,2024-01-01T00:05:00Z,27.3620,-90.1810,36.8,25.1,11111222
Anadarko,ioos:station:wmo:42379:1,2024-01-01T00:15:00Z,27.3620,-90.1810,36.8,25.1,11111222
Anadarko,ioos:station:wmo:42379:1,2024-01-01T00:25:00Z,27.3620,-90.1810,36.8,25.1,11111222
Anadarko,ioos:station:wmo:42379:1,2024-01-01T00:36:00Z,27.3620,-90.1810,36.8,25.1,11111222
Anadarko,ioos:station:wmo:42379:1,2024-01-01T00:46:00Z,27.3620,-90.1810,36.9,25.1,11111222
Anadarko,ioos:station:wmo:42379:1,2024-01-01T00:56:00Z,27.3620,-90.1810,36.9,25.1,11111222
Anadarko,ioos:station:wmo:42379:1,2024-01-01T01:06:00Z,27.3620,-90.1810,36.9,25.1,11111222
Anadarko,ioos:station:wmo:42379:1,2024-01-01T01:16:00Z,27.3620,-90.1810,36.9,25.1,11111222
Anadarko,ioos:station:wmo:42379:1,2024-01-01T01:27:00Z,27.3620,-90.1810,36.9,25.1,11111222
Anadarko,ioos:station:wmo:42379:1,2024-01-01T01:37:00Z,27.3620,-90.1810,36.9,25.1,11111222
Anadarko,ioos:station:wmo:42379:1,2024-01-01T01:47:00Z,27.3620,-90.1810,36.9,25.1,11111222
Anadarko,ioos:station:wmo:42379:1,2024-01-01T01:57:00Z,27.3620,-90.1810,36.9,25.1,11111222
Anadarko,ioos:station:wmo:42379:1,2024-01-01T02:04:00Z,27.3620,-90.1810,37.0,25.1,11111222
Anadarko,ioos:station:wmo:42379:1,2024-01-01T02:14:00Z,27.3620,-90.1810,37.0,25.1,11111222
Anadarko,ioos:station:wmo:42379:1,2024-01-01T02:25:00Z,27.3620,-90.1810,37.0,25.1,11111222
Anadarko,ioos:station:wmo:42379:1,2024-01-01T02:35:00Z,27.3620,-90.1810,37.0,25.1,11111222
Anadarko,ioos:station:wmo:42379:1,2024-01-01T02:45:00Z,27.3620,-90.1810,37.0,25.1,11111222
Anadarko,ioos:station:wmo:42379:1,2024-01-01T02:55:00Z,27.3620,-90.1810,37.1,25.1,11111222
Anadarko,ioos:station:wmo:42379:1,2024-01-01T03:06:00Z,27.3620,-90.1810,37.1,25.1,11111222
Anadarko,ioos:station:wmo:42379:1,2024-01-01T03:16:00Z,27.3620,-90.1810,37.1,25.1,11111222
Anadarko,ioos:station:wmo:42379:1,2024-01-01T03:26:00Z,27.3620,-90.1810,37.1,25.1,11111222
Anadarko,ioos:station:wmo:42379:1,2024-01-01T03:36:00Z,27.3620,-90.1810,37.1,25.1,11111222
Anadarko,ioos:station:wmo:42379:1,2024-01-01T03:47:00Z,27.3620,-90.1810,37.1,25.0,11111222
Anadarko,ioos:station:wmo:42379:1,2024-01-01T03:57:00Z,27.3620,-90.1810,37.1,25.0,11111222
Anadarko,ioos:station:wmo:42379:1,2024-01-01T04:07:00Z,27.3620,-90.1810,37.1,25.0,11111222
Anadarko,ioos:station:wmo:42379:1,2024-01-01T04:17:00Z,27.3620,-90.1810,37.1,25.0,11111222
Anadarko,ioos:station:wmo:42379:1,2024-01-01T04:24:00Z,27.3620,-90.1810,37.2,25.0,11111222
Anadarko,ioos:station:wmo:42379:1,2024-01-01T04:35:00Z,27.3620,-90.1810,37.2,25.0,11111222
Anadarko,ioos:station:wmo:42379:1,2024-01-01T04:45:00Z,27.3620,-90.1810,37.2,25.0,11111222
Anadarko,ioos:station:wmo:42379:1,2024-01-01T04:55:00Z,27.3620,-90.1810,37.2,25.0,11111222
Anadarko,ioos:station:wmo:42379:1,2024-01-01T05:05:00Z,27.3620,-90.1810,37.2,25.0,11111222
Anadarko,ioos:station:wmo:42379:1,2024-01-01T05:16:00Z,27.3620,-90.1810,37.2,24.9,11111222
Anadarko,ioos:station:wmo:42379:1,2024-01-01T05:26:00Z,27.3620,-90.1810,37.2,24.9,11111222
Anadarko,ioos:station:wmo:42379:1,2024-01-01T05:36:00Z,27.3620,-90.1810,37.2,24.9,11111222
Anadarko,ioos:station:wmo:42379:1,2024-01-01T05:47:00Z,27.3620,-90.1810,37.1,24.9,11111222
Anadarko,ioos:station:wmo:42379:1,2024-01-01T05:57:00Z,27.3620,-90.1810,37.1,24.9,11111222
Anadarko,ioos:station:wmo:42379:1,2024-01-01T06:07:00Z,27.3620,-90.1810,37.1,24.9,11111222
Anadarko,ioos:station:wmo:42379:1,2024-01-01T06:14:00Z,27.3620,-90.1810,37.1,24.9,11111222
Anadarko,ioos:station:wmo:42379:1,2024-01-01T06:24:00Z,27.3620,-90.1810,37.1,24.9,11111222
Anadarko,ioos:station:wmo:42379:1,2024-01-01T06:35:00Z,27.3620,-90.1810,37.1,24.9,11111222
Anadarko,ioos:station:wmo:42379:1,2024-01-01T06:45:00Z,27.3620,-90.1810,37.1,24.9,11111222
Anadarko,ioos:station:wmo:42379:1,2024-01-01T06:55:00Z,27.3620,-90.1810,37.0,24.9,11111222
Anadarko,ioos:station:wmo:42379:1,2024-01-01T07:06:00Z,27.3620,-90.1810,37.0,24.9,11111222
Anadarko,ioos:station:wmo:42379:1,2024-01-01T07:16:00Z,27.3620,-90.1810,37.0,24.9,11111222
Anadarko,ioos:station:wmo:42379:1,2024-01-01T07:26:00Z,27.3620,-90.1810,37.0,24.9,11111222
Anadarko,ioos:station:wmo:42379:1,2024-01-01T07:37:00Z,27.3620,-90.1810,37.0,25.0,11111222
Anadarko,ioos:station:wmo:42379:1,2024-01-01T07:47:00Z,27.3620,-90.1810,37.0,25.0,11111222
Anadarko,ioos:station:wmo:42379:1,2024-01-01T07:57:00Z,27.3620,-90.1810,37.0,25.0,11111222
Anadarko,ioos:station:wmo:42379:1,2024-01-01T08:04:00Z,27.3620,-90.1810,37.0,25.0,11111222
Anadarko,ioos:station:wmo:42379:1,2024-01-01T08:15:00Z,27.3620,-90.1810,36.9,25.0,11111222
Anadarko,ioos:station:wmo:42379:1,2024-01-01T08:25:00Z,27.3620,-90.1810,36.9,25.0,11111222
Anadarko,ioos:station:wmo:42379:1,2024-01-01T08:35:00Z,27.3620,-90.1810,36.9,25.0,11111222
Anadarko,ioos:station:wmo:42379:1,2024-01-01T08:46:00Z,27.3620,-90.1810,36.9,25.0,11111222
Anadarko,ioos:station:wmo:42379:1,2024-01-01T08:56:00Z,27.3620,-90.1810,36.9,25.0,11111222
Anadarko,ioos:station:wmo:42379:1,2024-01-01T09:06:00Z,27.3620,-90.1810,36.9,25.0,11111222
Anadarko,ioos:station:wmo:42379:1,2024-01-01T09:17:00Z,27.3620,-90.1810,36.9,25.0,11111222
Anadarko,ioos:station:wmo:42379:1,2024-01-01T09:27:00Z,27.3620,-90.1810,36.9,25.0,11111222
Anadarko,ioos:station:wmo:42379:1,2024-01-01T09:37:00Z,27.3620,-90.1810,36.9,25.0,11111222
Anadarko,ioos:station:wmo:42379:1,2024-01-01T09:44:00Z,27.3620,-90.1810,36.9,25.0,11111222
Anadarko,ioos:station:wmo:42379:1,2024-01-01T09:55:00Z,27.3620,-90.1810,36.8,25.0,11111222
Anadarko,ioos:station:wmo:42379:1,2024-01-01T10:05:00Z,27.3620,-90.1810,36.8,25.0,11111222
Anadarko,ioos:station:wmo:42379:1,2024-01-01T10:15:00Z,27.3620,-90.1810,36.8,25.0,11111222
Anadarko,ioos:station:wmo:42379:1,2024-01-01T10:26:00Z,27.3620,-90.1810,36.8,25.0,11111222
Anadarko,ioos:station:wmo:42379:1,2024-01-01T10:36:00Z,27.3620,-90.1810,36.8,25.0,11111222
Anadarko,ioos:station:wmo:42379:1,2024-01-01T10:47:00Z,27.3620,-90.1810,36.8,25.0,11111222
Anadarko,ioos:station:wmo:42379:1,2024-01-01T10:57:00Z,27.3620,-90.1810,36.8,25.0,11111222
Anadarko,ioos:station:wmo:42379:1,2024-01-01T11:07:00Z,27.3620,-90.1810,36.7,25.0,11111222
Anadarko,ioos:station:wmo:42379:1,2024-01-01T11:14:00Z,27.3620,-90.1810,36.7,25.0,11111222
Anadarko,ioos:station:wmo:42379:1,2024-01-01T11:25:00Z,27.3620,-90.1810,36.7,25.0,11111222
Anadarko,ioos:station:wmo:42379:1,2024-01-01T11:35:00Z,27.3620,-90.1810,36.7,25.0,11111222
Anadarko,ioos:station:wmo:42379:1,2024-01-01T11:46:00Z,27.3620,-90.1810,36.7,25.0,11111222
Anadarko,ioos:station:wmo:42379:1,2024-01-01T11:56:00Z,27.3620,-90.1810,36.7,25.0,11111222
Anadarko,ioos:station:wmo:42379:1,2024-01-01T12:06:00Z,27.3620,-90.1810,36.7,25.0,11111222
Anadarko,ioos:station:wmo:42379:1,2024-01-01T12:17:00Z,27.3620,-90.1810,36.7,25.0,11111222
Anadarko,ioos:station:wmo:42379:1,2024-01-01T12:27:00Z,27.3620,-90.1810,36.7,25.0,11111222
Anadarko,ioos:station:wmo:42379:1,2024-01-01T12:34:00Z,27.3620,-90.1810,36.7,25.0,11111222
Anadarko,ioos:station:wmo:42379:1,2024-01-01T12:45:00Z,27.3620,-90.1810,36.6,25.0,11111222
Anadarko,ioos:station:wmo:42379:1,2024-01-01T12:55:00Z,27.3620,-90.1810,36.6,25.0,11111222
Anadarko,ioos:station:wmo:42379:1,2024-01-01T13:05:00Z,27.3620,-90.1810,36.6,24.9,11111222
Anadarko,ioos:station:wmo:42379:1,2024-01-01T13:16:00Z,27.3620,-90.1810,36.6,24.9,11111222
Anadarko,ioos:station:wmo:42379:1,2024-01-01T13:26:00Z,27.3620,-90.1810,36.6,24.9,11111222
Anadarko,ioos:station:wmo:42379:1,2024-01-01T13:37:00Z,27.3620,-90.1810,36.6,24.9,11111222
Anadarko,ioos:station:wmo:42379:1,2024-01-01T13:47:00Z,27.3620,-90.1810,36.7,24.9,11111222
Anadarko,ioos:station:wmo:42379:1,2024-01-01T13:57:00Z,27.3620,-90.1810,36.7,24.9,11111222
Anadarko,ioos:station:wmo:42379:1,2024-01-01T14:04:00Z,27.3620,-90.1810,36.6,24.9,11111222
Anadarko,ioos:station:wmo:42379:1,2024-01-01T14:15:00Z,27.3620,-90.1810,36.6,24.9,11111222
Anadarko,ioos:station:wmo:42379:1,2024-01-01T14:25:00Z,27.3620,-90.1810,36.6,24.9,11111222
Anadarko,ioos:station:wmo:42379:1,2024-01-01T14:36:00Z,27.3620,-90.1810,36.6,24.9,11111222
Anadarko,ioos:station:wmo:42379:1,2024-01-01T14:46:00Z,27.3620,-90.1810,36.6,24.9,11111222
Anadarko,ioos:station:wmo:42379:1,2024-01-01T14:57:00Z,27.3620,-90.1810,36.6,24.9,11111222
Anadarko,ioos:station:wmo:42379:1,2024-01-01T15:07:00Z,27.3620,-90.1810,36.6,24.9,11111222
Anadarko,ioos:station:wmo:42379:1,2024-01-01T15:14:00Z,27.3620,-90.1810,36.6,24.9,11111222
Anadarko,ioos:station:wmo:42379:1,2024-01-01T15:25:00Z,27.3620,-90.1810,36.6,24.9,11111222
Anadarko,ioos:station:wmo:42379:1,2024-01-01T15:35:00Z,27.3620,-90.1810,36.5,24.9,11111222
Anadarko,ioos:station:wmo:42379:1,2024-01-01T15:45:00Z,27.3620,-90.1810,36.5,24.9,11111222
Anadarko,ioos:station:wmo:42379:1,2024-01-01T15:56:00Z,27.3620,-90.1810,36.5,24.9,11111222
Anadarko,ioos:station:wmo:42379:1,2024-01-01T16:06:00Z,27.3620,-90.1810,36.5,24.9,11111222
Anadarko,ioos:station:wmo:42379:1,2024-01-01T16:17:00Z,27.3620,-90.1810,36.5,24.9,11111222
Anadarko,ioos:station:wmo:42379:1,2024-01-01T16:27:00Z,27.3620,-90.1810,36.5,24.9,11111222
Anadarko,ioos:station:wmo:42379:1,2024-01-01T16:34:00Z,27.3620,-90.1810,36.5,24.9,11111222
Anadarko,ioos:station:wmo:42379:1,2024-01-01T16:45:00Z,27.3620,-90.1810,36.5,24.9,11111222
Anadarko,ioos:station:wmo:42379:1,2024-01-01T16:55:00Z,27.3620,-90.1810,36.5,25.0,11111222
Anadarko,ioos:station:wmo:42379:1,2024-01-01T17:06:00Z,27.3620,-90.1810,36.5,25.0,11111222
Anadarko,ioos:station:wmo:42379:1,2024-01-01T17:16:00Z,27.3620,-90.1810,36.5,25.0,11111222
Anadarko,ioos:station:wmo:42379:1,2024-01-01T17:27:00Z,27.3620,-90.1810,36.5,25.0,11111222
Anadarko,ioos:station:wmo:42379:1,2024-01-01T17:37:00Z,27.3620,-90.1810,36.5,24.9,11111222
Anadarko,ioos:station:wmo:42379:1,2024-01-01T17:44:00Z,27.3620,-90.1810,36.5,24.9,11111222
Anadarko,ioos:station:wmo:42379:1,2024-01-01T17:55:00Z,27.3620,-90.1810,36.5,24.9,11111222
Anadarko,ioos:station:wmo:42379:1,2024-01-01T18:05:00Z,27.3620,-90.1810,36.6,24.9,11111222
Anadarko,ioos:station:wmo:42379:1,2024-01-01T18:16:00Z,27.3620,-90.1810,36.6,24.9,11111222
Anadarko,ioos:station:wmo:42379:1,2024-01-01T18:26:00Z,27.3620,-90.1810,36.6,24.9,11111222
Anadarko,ioos:station:wmo:42379:1,2024-01-01T18:36:00Z,27.3620,-90.1810,36.6,24.9,11111222
Anadarko,ioos:station:wmo:42379:1,2024-01-01T18:47:00Z,27.3620,-90.1810,36.6,24.9,11111222
Anadarko,ioos:station:wmo:42379:1,2024-01-01T18:57:00Z,27.3620,-90.1810,36.6,24.9,11111222
Anadarko,ioos:station:wmo:42379:1,2024-01-01T19:04:00Z,27.3620,-90.1810,36.6,24.9,11111222
Anadarko,ioos:station:wmo:42379:1,2024-01-01T19:15:00Z,27.3620,-90.1810,36.6,24.9,11111222
Anadarko,ioos:station:wmo:42379:1,2024-01-01T19:25:00Z,27.3620,-90.1810,36.6,24.9,11111222
Anadarko,ioos:station:wmo:42379:1,2024-01-01T19:36:00Z,27.3620,-90.1810,36.6,24.9,11111222
Anadarko,ioos:station:wmo:42379:1,2024-01-01T19:46:00Z,27.3620,-90.1810,36.6,24.9,11111222
Anadarko,ioos:station:wmo:42379:1,2024-01-01T19:57:00Z,27.3620,-90.1810,36.7,24.9,11111222
Anadarko,ioos:station:wmo:42379:1,2024-01-01T20:07:00Z,27.3620,-90.1810,36.7,24.9,11111222
Anadarko,ioos:station:wmo:42379:1,2024-01-01T20:14:00Z,27.3620,-90.1810,36.7,24.9,11111222
Anadarko,ioos:station:wmo:42379:1,2024-01-01T20:25:00Z,27.3620,-90.1810,36.7,24.9,11111222
Anadarko,ioos:station:wmo:42379:1,2024-01-01T20:35:00Z,27.3620,-90.1810,36.7,24.9,11111222
Anadarko,ioos:station:wmo:42379:1,2024-01-01T20:46:00Z,27.3620,-90.1810,36.7,24.9,11111222
Anadarko,ioos:station:wmo:42379:1,2024-01-01T20:57:00Z,27.3620,-90.1810,36.7,24.9,11111222
Anadarko,ioos:station:wmo:42379:1,2024-01-01T21:07:00Z,27.3620,-90.1810,36.7,25.0,11111222
Anadarko,ioos:station:wmo:42379:1,2024-01-01T21:18:00Z,27.3620,-90.1810,36.7,25.0,11111222
Anadarko,ioos:station:wmo:42379:1,2024-01-01T21:25:00Z,27.3620,-90.1810,36.7,25.0,11111222
Anadarko,ioos:station:wmo:42379:1,2024-01-01T21:35:00Z,27.3620,-90.1810,36.7,25.0,11111222
Anadarko,ioos:station:wmo:42379:1,2024-01-01T21:46:00Z,27.3620,-90.1810,36.7,25.0,11111222
Anadarko,ioos:station:wmo:42379:1,2024-01-01T21:56:00Z,27.3620,-90.1810,36.7,25.0,11111222
Anadarko,ioos:station:wmo:42379:1,2024-01-01T22:07:00Z,27.3620,-90.1810,36.7,25.0,11111222
Anadarko,ioos:station:wmo:42379:1,2024-01-01T22:17:00Z,27.3620,-90.1810,36.7,25.0,11111222
Anadarko,ioos:station:wmo:42379:1,2024-01-01T22:24:00Z,27.3620,-90.1810,36.7,25.1,11111222
Anadarko,ioos:station:wmo:42379:1,2024-01-01T22:35:00Z,27.3620,-90.1810,36.7,25.1,11111222
Anadarko,ioos:station:wmo:42379:1,2024-01-01T22:45:00Z,27.3620,-90.1810,36.7,25.1,11111222
Anadarko,ioos:station:wmo:42379:1,2024-01-01T22:56:00Z,27.3620,-90.1810,36.7,25.1,11111222
Anadarko,ioos:station:wmo:42379:1,2024-01-01T23:06:00Z,27.3620,-90.1810,36.7,25.1,11111222
Anadarko,ioos:station:wmo:42379:1,2024-01-01T23:17:00Z,27.3620,-90.1810,36.7,25.1,11111222
Anadarko,ioos:station:wmo:42379:1,2024-01-01T23:27:00Z,27.3620,-90.1810,36.7,25.0,11111222
Anadarko,ioos:station:wmo:42379:1,2024-01-01T23:34:00Z,27.3620,-90.1810,36.8,25.0,11111222
Anadarko,ioos:station:wmo:42379:1,2024-01-01T23:45:00Z,27.3620,-90.1810,36.8,25.0,11111222
Anadarko,ioos:station:wmo:42379:1,2024-01-01T23:55:00Z,27.3620,-90.1810,36.8,25.0,11111222
Anadarko,ioos:station:wmo:42379:1,2024-01-02T00:06:00Z,27.3620,-90.1810,36.8,24.9,11111222
Anadarko,ioos:station:wmo:42379:1,2024-01-02T00:17:00Z,27.3620,-90.1810,36.8,24.9,11111222
Anadarko,ioos:station:wmo:42379:1,2024-01-02T00:27:00Z,27.3620,-90.1810,36.8,24.9,11111222
Anadarko,ioos:station:wmo:42379:1,2024-01-02T00:34:00Z,27.3620,-90.1810,36.8,24.9,11111222
Anadarko,ioos:station:wmo:42379:1,2024-01-02T00:45:00Z,27.3620,-90.1810,36.8,24.9,11111222
Anadarko,ioos:station:wmo:42379:1,2024-01-02T00:55:00Z,27.3620,-90.1810,36.8,24.9,11111222
Anadarko,ioos:station:wmo:42379:1,2024-01-02T01:06:00Z,27.3620,-90.1810,36.8,24.9,11111222
Anadarko,ioos:station:wmo:42379:1,2024-01-02T01:16:00Z,27.3620,-90.1810,36.8,24.9,11111222
Anadarko,ioos:station:wmo:42379:1,2024-01-02T01:27:00Z,27.3620,-90.1810,36.8,24.9,11111222
Anadarko,ioos:station:wmo:42379:1,2024-01-02T01:37:00Z,27.3620,-90.1810,36.7,24.9,11111222
Anadarko,ioos:station:wmo:42379:1,2024-01-02T01:44:00Z,27.3620,-90.1810,36.8,24.9,11111222
Anadarko,ioos:station:wmo:42379:1,2024-01-02T01:55:00Z,27.3620,-90.1810,36.8,24.9,11111222
Anadarko,ioos:station:wmo:42379:1,2024-01-02T02:06:00Z,27.3620,-90.1810,36.8,24.9,11111222
Anadarko,ioos:station:wmo:42379:1,2024-01-02T02:16:00Z,27.3620,-90.1810,36.8,24.9,11111222
Anadarko,ioos:station:wmo:42379:1,2024-01-02T02:27:00Z,27.3620,-90.1810,36.8,24.9,11111222
Anadarko,ioos:station:wmo:42379:1,2024-01-02T02:37:00Z,27.3620,-90.1810,36.8,24.9,11111222
Anadarko,ioos:station:wmo:42379:1,2024-01-02T02:44:00Z,27.3620,-90.1810,36.8,24.9,11111222
Anadarko,ioos:station:wmo:42379:1,2024-01-02T02:55:00Z,27.3620,-90.1810,36.8,24.9,11111222
Anadarko,ioos:station:wmo:42379:1,2024-01-02T03:06:00Z,27.3620,-90.1810,36.8,24.9,11111222
Anadarko,ioos:station:wmo:42379:1,2024-01-02T03:16:00Z,27.3620,-90.1810,36.8,24.9,11111222
Anadarko,ioos:station:wmo:42379:1,2024-01-02T03:27:00Z,27.3620,-90.1810,36.8,24.9,11111222
Anadarko,ioos:station:wmo:42379:1,2024-01-02T03:37:00Z,27.3620,-90.1810,36.8,24.9,11111222
Anadarko,ioos:station:wmo:42379:1,2024-01-02T03:44:00Z,27.3620,-90.1810,36.8,24.9,11111222
Anadarko,ioos:station:wmo:42379:1,2024-01-02T03:55:00Z,27.3620,-90.1810,36.8,24.9,11111222
Anadarko,ioos:station:wmo:42379:1,2024-01-02T04:06:00Z,27.3620,-90.1810,36.8,24.9,11111222
Anadarko,ioos:station:wmo:42379:1,2024-01-02T04:16:00Z,27.3620,-90.1810,36.8,24.9,11111222
Anadarko,ioos:station:wmo:42379:1,2024-01-02T04:27:00Z,27.3620,-90.1810,36.8,24.9,11111222
Anadarko,ioos:station:wmo:42379:1,2024-01-02T04:37:00Z,27.3620,-90.1810,36.8,24.9,11111222
Anadarko,ioos:station:wmo:42379:1,2024-01-02T04:45:00Z,27.3620,-90.1810,36.8,24.9,11111222
Anadarko,ioos:station:wmo:42379:1,2024-01-02T04:55:00Z,27.3620,-90.1810,36.8,24.9,11111222
Anadarko,ioos:station:wmo:42379:1,2024-01-02T05:06:00Z,27.3620,-90.1810,36.8,24.9,11111222
Anadarko,ioos:station:wmo:42379:1,2024-01-02T05:16:00Z,27.3620,-90.1810,36.8,24.9,11111222
Anadarko,ioos:station:wmo:42379:1,2024-01-02T05:27:00Z,27.3620,-90.1810,36.8,24.9,11111222
Anadarko,ioos:station:wmo:42379:1,2024-01-02T05:38:00Z,27.3620,-90.1810,36.8,24.9,11111222
Anadarko,ioos:station:wmo:42379:1,2024-01-02T05:45:00Z,27.3620,-90.1810,36.8,24.9,11111222
Anadarko,ioos:station:wmo:42379:1,2024-01-02T05:55:00Z,27.3620,-90.1810,36.8,24.9,11111222
Anadarko,ioos:station:wmo:42379:1,2024-01-02T06:06:00Z,27.3620,-90.1810,36.8,24.9,11111222
Anadarko,ioos:station:wmo:42379:1,2024-01-02T06:17:00Z,27.3620,-90.1810,36.7,24.9,11111222
Anadarko,ioos:station:wmo:42379:1,2024-01-02T06:27:00Z,27.3620,-90.1810,36.7,24.9,11111222
Anadarko,ioos:station:wmo:42379:1,2024-01-02T06:34:00Z,27.3620,-90.1810,36.7,24.9,11111222
Anadarko,ioos:station:wmo:42379:1,2024-01-02T06:45:00Z,27.3620,-90.1810,36.7,24.9,11111222
Anadarko,ioos:station:wmo:42379:1,2024-01-02T06:56:00Z,27.3620,-90.1810,36.7,24.8,11111222
Anadarko,ioos:station:wmo:42379:1,2024-01-02T07:06:00Z,27.3620,-90.1810,36.7,24.8,11111222
Anadarko,ioos:station:wmo:42379:1,2024-01-02T07:17:00Z,27.3620,-90.1810,36.7,24.8,11111222
Anadarko,ioos:station:wmo:42379:1,2024-01-02T07:24:00Z,27.3620,-90.1810,36.7,24.8,11111222
Anadarko,ioos:station:wmo:42379:1,2024-01-02T07:35:00Z,27.3620,-90.1810,36.7,24.8,11111222
Anadarko,ioos:station:wmo:42379:1,2024-01-02T07:46:00Z,27.3620,-90.1810,36.7,24.8,11111222
Anadarko,ioos:station:wmo:42379:1,2024-01-02T07:56:00Z,27.3620,-90.1810,36.7,24.8,11111222
Anadarko,ioos:station:wmo:42379:1,2024-01-02T08:07:00Z,27.3620,-90.1810,36.7,24.8,11111222
Anadarko,ioos:station:wmo:42379:1,2024-01-02T08:14:00Z,27.3620,-90.1810,36.7,24.8,11111222
Anadarko,ioos:station:wmo:42379:1,2024-01-02T08:25:00Z,27.3620,-90.1810,36.7,24.8,11111222
Anadarko,ioos:station:wmo:42379:1,2024-01-02T08:36:00Z,27.3620,-90.1810,36.7,24.8,11111222
Anadarko,ioos:station:wmo:42379:1,2024-01-02T08:46:00Z,27.3620,-90.1810,36.7,24.8,11111222
Anadarko,ioos:station:wmo:42379:1,2024-01-02T08:57:00Z,27.3620,-90.1810,36.7,24.8,11111222
Anadarko,ioos:station:wmo:42379:1,2024-01-02T09:04:00Z,27.3620,-90.1810,36.7,24.8,11111222
Anadarko,ioos:station:wmo:42379:1,2024-01-02T09:15:00Z,27.3620,-90.1810,36.7,24.8,11111222
Anadarko,ioos:station:wmo:42379:1,2024-01-02T09:26:00Z,27.3620,-90.1810,36.7,24.8,11111222
Anadarko,ioos:station:wmo:42379:1,2024-01-02T09:36:00Z,27.3620,-90.1810,36.7,24.8,11111222
Anadarko,ioos:station:wmo:42379:1,2024-01-02T09:47:00Z,27.3620,-90.1810,36.7,24.9,11111222
Anadarko,ioos:station:wmo:42379:1,2024-01-02T09:54:00Z,27.3620,-90.1810,36.7,24.9,11111222
Anadarko,ioos:station:wmo:42379:1,2024-01-02T10:05:00Z,27.3620,-90.1810,36.7,24.9,11111222
Anadarko,ioos:station:wmo:42379:1,2024-01-02T10:16:00Z,27.3620,-90.1810,36.7,24.9,11111222
Anadarko,ioos:station:wmo:42379:1,2024-01-02T10:26:00Z,27.3620,-90.1810,36.7,24.9,11111222
Anadarko,ioos:station:wmo:42379:1,2024-01-02T10:37:00Z,27.3620,-90.1810,36.7,24.9,11111222
Anadarko,ioos:station:wmo:42379:1,2024-01-02T10:44:00Z,27.3620,-90.1810,36.7,24.9,11111222
Anadarko,ioos:station:wmo:42379:1,2024-01-02T10:55:00Z,27.3620,-90.1810,36.7,24.9,11111222
Anadarko,ioos:station:wmo:42379:1,2024-01-02T11:06:00Z,27.3620,-90.1810,36.7,24.9,11111222
Anadarko,ioos:station:wmo:42379:1,2024-01-02T11:17:00Z,27.3620,-90.1810,36.7,24.9,11111222
Anadarko,ioos:station:wmo:42379:1,2024-01-02T11:27:00Z,27.3620,-90.1810,36.7,24.9,11111222
Anadarko,ioos:station:wmo:42379:1,2024-01-02T11:34:00Z,27.3620,-90.1810,36.7,24.9,11111222
Anadarko,ioos:station:wmo:42379:1,2024-01-02T11:45:00Z,27.3620,-90.1810,36.7,24.9,11111222
Anadarko,ioos:station:wmo:42379:1,2024-01-02T11:56:00Z,27.3620,-90.1810,36.7,24.9,11111222
Anadarko,ioos:station:wmo:42379:1,2024-01-02T12:07:00Z,27.3620,-90.1810,36.7,24.9,11111222
Anadarko,ioos:station:wmo:42379:1,2024-01-02T12:17:00Z,27.3620,-90.1810,36.7,24.9,11111222
Anadarko,ioos:station:wmo:42379:1,2024-01-02T12:25:00Z,27.3620,-90.1810,36.7,24.9,11111222
Anadarko,ioos:station:wmo:42379:1,2024-01-02T12:35:00Z,27.3620,-90.1810,36.7,24.9,11111222
Anadarko,ioos:station:wmo:42379:1,2024-01-02T12:46:00Z,27.3620,-90.1810,36.7,24.9,11111222
Anadarko,ioos:station:wmo:42379:1,2024-01-02T12:57:00Z,27.3620,-90.1810,36.7,24.9,11111222
Anadarko,ioos:station:wmo:42379:1,2024-01-02T13:04:00Z,27.3620,-90.1810,36.7,24.9,11111222
Anadarko,ioos:station:wmo:42379:1,2024-01-02T13:15:00Z,27.3620,-90.1810,36.7,24.9,11111222
Anadarko,ioos:station:wmo:42379:1,2024-01-02T13:26:00Z,27.3620,-90.1810,36.7,24.9,11111222
Anadarko,ioos:station:wmo:42379:1,2024-01-02T13:37:00Z,27.3620,-90.1810,36.6,24.9,11111222
Anadarko,ioos:station:wmo:42379:1,2024-01-02T13:47:00Z,27.3620,-90.1810,36.6,24.9,11111222
Anadarko,ioos:station:wmo:42379:1,2024-01-02T13:54:00Z,27.3620,-90.1810,36.6,24.9,11111222
Anadarko,ioos:station:wmo:42379:1,2024-01-02T14:05:00Z,27.3620,-90.1810,36.6,24.9,11111222
Anadarko,ioos:station:wmo:42379:1,2024-01-02T14:16:00Z,27.3620,-90.1810,36.6,24.9,11111222
Anadarko,ioos:station:wmo:42379:1,2024-01-02T14:27:00Z,27.3620,-90.1810,36.6,24.9,11111222
Anadarko,ioos:station:wmo:42379:1,2024-01-02T14:38:00Z,27.3620,-90.1810,36.6,24.9,11111222
Anadarko,ioos:station:wmo:42379:1,2024-01-02T14:45:00Z,27.3620,-90.1810,36.6,24.8,11111222
Anadarko,ioos:station:wmo:42379:1,2024-01-02T14:56:00Z,27.3620,-90.1810,36.6,24.8,11111222
Anadarko,ioos:station:wmo:42379:1,2024-01-02T15:06:00Z,27.3620,-90.1810,36.6,24.8,11111222
Anadarko,ioos:station:wmo:42379:1,2024-01-02T15:17:00Z,27.3620,-90.1810,36.6,24.8,11111222
Anadarko,ioos:station:wmo:42379:1,2024-01-02T15:24:00Z,27.3620,-90.1810,36.6,24.8,11111222
Anadarko,ioos:station:wmo:42379:1,2024-01-02T15:35:00Z,27.3620,-90.1810,36.6,24.8,11111222
Anadarko,ioos:station:wmo:42379:1,2024-01-02T15:46:00Z,27.3620,-90.1810,36.6,24.8,11111222
Anadarko,ioos:station:wmo:42379:1,2024-01-02T15:57:00Z,27.3620,-90.1810,36.6,24.8,11111222
Anadarko,ioos:station:wmo:42379:1,2024-01-02T16:04:00Z,27.3620,-90.1810,36.6,24.8,11111222
Anadarko,ioos:station:wmo:42379:1,2024-01-02T16:15:00Z,27.3620,-90.1810,36.6,24.8,11111222
Anadarko,ioos:station:wmo:42379:1,2024-01-02T16:26:00Z,27.3620,-90.1810,36.6,24.9,11111222
Anadarko,ioos:station:wmo:42379:1,2024-01-02T16:37:00Z,27.3620,-90.1810,36.6,24.9,11111222
Anadarko,ioos:station:wmo:42379:1,2024-01-02T16:47:00Z,27.3620,-90.1810,36.6,24.9,11111222
Anadarko,ioos:station:wmo:42379:1,2024-01-02T16:55:00Z,27.3620,-90.1810,36.6,24.9,11111222
Anadarko,ioos:station:wmo:42379:1,2024-01-02T17:05:00Z,27.3620,-90.1810,36.6,24.9,11111222
Anadarko,ioos:station:wmo:42379:1,2024-01-02T17:16:00Z,27.3620,-90.1810,36.6,24.9,11111222
Anadarko,ioos:station:wmo:42379:1,2024-01-02T17:27:00Z,27.3620,-90.1810,36.6,24.9,11111222
Anadarko,ioos:station:wmo:42379:1,2024-01-02T17:34:00Z,27.3620,-90.1810,36.6,24.9,11111222
Anadarko,ioos:station:wmo:42379:1,2024-01-02T17:45:00Z,27.3620,-90.1810,36.6,24.9,11111222
Anadarko,ioos:station:wmo:42379:1,2024-01-02T17:56:00Z,27.3620,-90.1810,36.6,24.9,11111222
Anadarko,ioos:station:wmo:42379:1,2024-01-02T18:07:00Z,27.3620,-90.1810,36.6,24.9,11111222
Anadarko,ioos:station:wmo:42379:1,2024-01-02T18:14:00Z,27.3620,-90.1810,36.6,24.9,11111222
Anadarko,ioos:station:wmo:42379:1,2024-01-02T18:25:00Z,27.3620,-90.1810,36.6,24.9,11111222
Anadarko,ioos:station:wmo:42379:1,2024-01-02T18:36:00Z,27.3620,-90.1810,36.6,24.9,11111222
Anadarko,ioos:station:wmo:42379:1,2024-01-02T18:47:00Z,27.3620,-90.1810,36.6,25.0,11111222
Anadarko,ioos:station:wmo:42379:1,2024-01-02T18:58:00Z,27.3620,-90.1810,36.6,25.0,11111222
Anadarko,ioos:station:wmo:42379:1,2024-01-02T19:05:00Z,27.3620,-90.1810,36.6,25.0,11111222